AirNav   Pilot Hours Calculator
 
 423 users online  

13PS St Luke's/Pennstar Flight Center Heliport
Nazareth, Pennsylvania, USA

GOING TO NAZARETH?


FAA INFORMATION EFFECTIVE 31 DECEMBER 2020

Location

FAA Identifier: 13PS
Lat/Long: 40-44-21.0000N 075-20-02.0000W
40-44.350000N 075-20.033333W
40.7391667,-75.3338889
(estimated)
Elevation: 488 ft. / 149 m (estimated)
Time zone: UTC -5 (UTC -4 during Daylight Saving Time)
Zip code: 18064

Heliport Operations

Heliport use: Private use, MEDICAL.
Activation date: 08/2004
Control tower: no
ARTCC: NEW YORK CENTER
FSS: NEW YORK FLIGHT SERVICE STATION
Attendance: UNATNDD
Wind indicator: lighted
Segmented circle: no
Lights: ACTIVATE PERIMETER LGTS - 123.05
Beacon: white-green-yellow (heliport)
Operates sunset to sunrise.

Heliport Communications

WX ASOS at ABE (7 nm SW): 126.975 (610-264-1765)
WX AWOS-3 at XLL (12 nm SW): 127.875 (610-231-3111)
WX AWOS-3 at UKT (18 nm S): 119.475 (215-538-7610)
WX AWOS-3 at N40 (19 nm SE): 121.725
WX AWOS-3PT at 22N (20 nm W): 119.350 (570-386-3423)

Nearby radio navigation aids

VOR radial/distance  VOR name  Freq  Var
FJCr092/5.5ALLENTOWN VORTAC117.5010W
ETXr068/18.5EAST TEXAS VOR/DME110.2009W
BWZr272/23.5BROADWAY VOR/DME114.2011W
STWr245/26.1STILLWATER VOR/DME109.6011W
SBJr299/28.5SOLBERG VOR/DME112.9010W
PTWr027/32.7POTTSTOWN VORTAC116.5009W
ARDr336/35.0YARDLEY VOR/DME108.2010W
LVZr163/35.8WILKES-BARRE VORTAC111.6010W

 
NDB name  Hdg/Dist  Freq  Var  ID
AMBLER009/36.927512WING .. -. --.

Heliport Services

Fuel available: A

Runway Information

Helipad H1

Dimensions: 80 x 80 ft. / 24 x 24 m
Surface: concrete
Runway edge lights: PERI
Latitude: 40-44.350000N
Longitude: 075-20.033333W
Elevation: 488.0 ft.
Traffic pattern: leftleft

Heliport Ownership and Management from official FAA records

Ownership: Privately-owned
Owner: ST. LUKE'S HOSPITAL NETWORK
500 GRACEDALE AVE.
NAZARETH, PA 18064
Phone 800-543-7827
Manager: PENNSTAR FLIGHT
500 GRACEDALE AVE.
NAZARETH, PA 18064
Phone 800-543-7827

Heliport Operational Statistics

Aircraft based on the field: 4
Multi engine airplanes: 2
Helicopters: 2
    

Additional Remarks

A52-H1 26 FT BLDG 86 FT NORTH; 150 FT TWR 325 FT NORTH; RAISING TERRAIN NORTH OF LANDING PAD.
FOR CD CTC ALLENTOWN APCH AT 800-728-6322.

Instrument Procedures

There are no published instrument procedures at 13PS.

Some nearby airports with instrument procedures:

N43 - Braden Airpark (4 nm E)
KABE - Lehigh Valley International Airport (7 nm SW)
KXLL - Allentown Queen City Municipal Airport (12 nm SW)
N85 - Alexandria Airport (17 nm SE)
KUKT - Quakertown Airport (18 nm S)
N40 - Sky Manor Airport (19 nm SE)
N53 - Stroudsburg-Pocono Airport (19 nm NE)
22N - Jake Arner Memorial Airport (20 nm W)
 
Loc | Ops | Rwys | IFR | FBO | Links
Com | Nav | Svcs | Stats | Notes
Area around 13PS (St Luke's/Pennstar Flight Center Heliport)
 
Road maps at: MapQuest Bing Google
 
Aerial photo
No photo
 
Sectional chart

 
Airport distance calculator
Flying to St Luke's/Pennstar Flight Center Heliport? Find the distance to fly.

From to 13PS

Sunrise and sunset
Times for 23-Jan-2021
 Local
(UTC-5)
 Zulu
(UTC)
Morning civil twilight06:5011:50
Sunrise07:2012:20
Sunset17:0722:07
Evening civil twilight17:3622:36

Current date and time
Zulu (UTC)  23-Jan-2021 07:17:47
Local (UTC-5)  23-Jan-2021 02:17:47
 
METAR
KABE 
8nm SW 
230651Z AUTO 31015G23KT 10SM OVC055 M01/M13 A2997 RMK AO2 PK WND 31027/0620 SLP152 T10111128
KXLL 
12nm SW 
230655Z AUTO 31011G18KT 10SM OVC060 00/M11 A2999 RMK AO2
KUKT 
18nm S 
230655Z AUTO 29008G18KT 260V320 10SM OVC055 M01/M12 A2997 RMK A01
K22N 
20nm W 
230655Z AUTO 28009G17KT 248V328 10SM OVC050 M01/M12 A2998 RMK AO2
TAF
KABE 
8nm SW 
230528Z 2306/2406 29012G20KT P6SM BKN050 FM231500 31018G28KT P6SM BKN040 FM232100 31016G26KT P6SM FEW060 FM240000 30012KT P6SM SKC
NOTAMs
Click for the latest NOTAMs
NOTAMs are issued by the DoD/FAA and will open in a separate window not controlled by AirNav.

 

 
 

Would you like to see your business listed on this page?

 If your business provides an interesting product or service to pilots, flight crews, aircraft, or users of the St Luke's/Pennstar Flight Center Heliport, you should consider listing it here.  To start the listing process, click on the button below
 
Add a business
 

Other Pages about St Luke's/Pennstar Flight Center Heliport

Update a link
 
Copyright © AirNav, LLC. All rights reserved. Privacy Policy  Contact